Flag for Germany Weather past 2 weeks in Altenburg, Thuringia, Germany

Now
22 °F

Fog.


Feels Like: 12 °F
Forecast: 20 / 29 °F
Wind: 9 mph from Northeast

Location: Gera-Leumnitz

Current Time: Dec 28, 2014 at 2:04:39 AM

Latest Report: Dec 28, 2014 at 1:00 AM


Visibility: 4 mi

Pressure: 29.81 "Hg

Humidity: 86%

Dew point: 18 °F

Location of AltenburgLocation

Historic Weather in Altenburg — Graph

°F

Altenburg temperature yesterday

Maximum temperature yesterday: 29 °F (at 2:00 PM)
Minimum temperature yesterday: 23 °F (at 11:00 PM)
Average temperature yesterday: 25 °F

Past Weeks' High & Low Weather Summary

 TemperatureHumidityPressure
High54 °F (Dec 19, 12:00 AM)100% (Dec 14, 10:00 PM)30.38 "Hg (Dec 14, 10:00 PM)
Low22 °F (Dec 28, 1:00 AM)63% (Dec 15, 2:00 PM)29.61 "Hg (Dec 13, 1:00 AM)
Average40 °F83%30.00 "Hg
* Reported Dec 13 1:00 AM — Dec 28 1:00 AM, Altenburg, Weather by CustomWeather, © 2014

Note: Actual official high and low records may vary slightly from our data, if they occured in-between our weather recording intervals... More about our weather records

Advertising

Altenburg weather history for previous 24 hours

 ConditionsComfort  
Time TempWeatherWind HumidityBarometerVisibility
1:00 AM
Dec 28
22 °FFog.9 mph86%29.81 "Hg4 mi
12:00 AM22 °FOvercast.7 mph84%29.79 "Hg7 mi
11:00 PM
Dec 27
23 °FOvercast.7 mph81%29.77 "Hg9 mi
10:00 PM24 °FOvercast.7 mph82%29.74 "Hg11 mi
9:00 PM24 °FOvercast.7 mph82%29.72 "Hg11 mi
8:00 PM24 °FOvercast.7 mph80%29.70 "Hg13 mi
7:00 PM25 °FOvercast.6 mph78%29.69 "Hg13 mi
6:00 PM25 °FOvercast.7 mph77%29.69 "Hg12 mi
5:00 PM26 °FOvercast.8 mph78%29.68 "Hg25 mi
4:00 PM27 °FOvercast.7 mph75%29.68 "Hg37 mi
3:00 PM28 °FOvercast.7 mph66%29.69 "Hg40 mi
2:00 PM29 °FOvercast.6 mph69%29.70 "Hg40 mi
1:00 PM28 °FOvercast.6 mph76%29.73 "Hg37 mi
12:00 PM27 °FOvercast.6 mph76%29.77 "Hg47 mi
11:00 AM26 °FOvercast.6 mph77%29.80 "Hg47 mi
10:00 AM25 °FOvercast.5 mph76%29.84 "Hg47 mi
9:00 AM24 °FOvercast.3 mph81%29.88 "Hg31 mi
8:00 AM24 °FPassing clouds.6 mph81%29.92 "Hg25 mi
7:00 AM25 °FPassing clouds.7 mph79%29.95 "Hg25 mi
6:00 AM25 °FPassing clouds.6 mph84%30.01 "Hg19 mi
5:00 AM24 °FOvercast.5 mph91%30.06 "Hg11 mi
4:00 AM24 °FPassing clouds.5 mph89%30.11 "Hg11 mi
3:00 AM24 °FPassing clouds.5 mph89%30.15 "Hg11 mi
2:00 AM25 °FClear.5 mph86%30.18 "Hg16 mi
Weather by CustomWeather, © 2014

See weather overviewHow to use our weather pages